Home > Time Zones > World Clock > Weather > Iran > Tabriz > Past weeks

Flag for Iran Weather past 2 weeks in Tabriz, Iran

Now
30 °F

Clear.


Feels Like: 23 °F
Forecast: 26 / 56 °F
Wind: 7 mph from Northeast

Location: Tabriz Airport

Current Time: Feb 2, 2015 at 5:25:35 AM

Latest Report: Feb 2, 2015 at 5:00 AM


Visibility: 10 mi

Pressure: 30.12 "Hg

Humidity: 93%

Dew point: 28 °F

Location of TabrizLocation

Historic Weather in Tabriz — Graph

°F

Tabriz temperature yesterday

Maximum temperature yesterday: 46 °F (at 3:00 PM)
Minimum temperature yesterday: 28 °F (at 6:30 AM)
Average temperature yesterday: 37 °F

Past Weeks' High & Low Weather Summary

 TemperatureHumidityPressure
High50 °F (Jan 27, 2:00 PM)100% (Jan 28, 10:30 PM)30.33 "Hg (Jan 28, 10:30 PM)
Low21 °F (Jan 19, 6:50 AM)32% (Jan 26, 3:30 PM)29.83 "Hg (Jan 29, 2:30 AM)
Average35 °F66%30.16 "Hg
* Reported Jan 18 4:30 AM — Feb 2 4:00 AM, Tabriz, Weather by CustomWeather, © 2014

Note: Actual official high and low records may vary slightly from our data, if they occured in-between our weather recording intervals... More about our weather records

Advertising

Tabriz weather history for previous 24 hours

 ConditionsComfort  
Time TempWeatherWind HumidityBarometerVisibility
4:00 AM
Feb 2
30 °FClear.7 mph93%30.12 "Hg10 mi
3:20 AM32 °FClear.9 mph87%30.15 "Hg10 mi
3:00 AM30 °FClear.5 mph93%30.15 "Hg10 mi
2:30 AM32 °FClear.5 mph87%30.15 "Hg10 mi
2:00 AM32 °FClear.5 mph87%30.15 "Hg10 mi
1:30 AM32 °FClear.2 mph87%30.15 "Hg10 mi
1:00 AM32 °FClear.5 mph87%30.15 "Hg10 mi
12:30 AM32 °FClear.5 mph87%30.15 "Hg10 mi
12:00 AM32 °FPassing clouds.2 mph87%30.15 "HgN/A
11:30 PM
Feb 1
32 °FPassing clouds.2 mph87%30.15 "HgN/A
11:00 PM34 °FPassing clouds.5 mph87%30.12 "HgN/A
10:30 PM34 °FPartly cloudy.5 mph87%30.15 "HgN/A
10:00 PM36 °FPartly cloudy.No wind87%30.15 "HgN/A
9:30 PM36 °FPartly cloudy.5 mph87%30.12 "HgN/A
9:00 PM37 °FPassing clouds.No wind81%30.12 "HgN/A
8:30 PM39 °FPassing clouds.No wind81%30.12 "HgN/A
8:00 PM39 °FPassing clouds.No wind81%30.12 "HgN/A
7:30 PM41 °FPassing clouds.5 mph76%30.12 "HgN/A
6:50 PM43 °FPassing clouds.5 mph71%30.12 "HgN/A
6:30 PM43 °FPassing clouds.12 mph71%30.12 "HgN/A
6:00 PM43 °FPartly sunny.12 mph71%30.12 "HgN/A
5:30 PM43 °FPartly sunny.12 mph71%30.12 "HgN/A
4:50 PM45 °FPartly sunny.12 mph57%30.12 "HgN/A
4:30 PM45 °FPartly sunny.14 mph57%30.12 "HgN/A
3:50 PM46 °FPassing clouds.14 mph57%30.12 "HgN/A
3:30 PM46 °FPassing clouds.16 mph57%30.12 "HgN/A
3:00 PM46 °FPassing clouds.5 mph57%30.12 "Hg5 mi
2:30 PM45 °FScattered clouds.5 mph61%30.12 "Hg5 mi
2:00 PM43 °FPartly sunny.9 mph66%30.15 "Hg4 mi
1:30 PM43 °FPartly sunny.9 mph66%30.15 "Hg4 mi
1:00 PM43 °FPartly sunny.5 mph66%30.18 "Hg4 mi
12:30 PM43 °FPartly sunny.5 mph66%30.18 "Hg4 mi
12:00 PM43 °FScattered clouds.7 mph66%30.18 "Hg4 mi
11:30 AM43 °FScattered clouds.7 mph66%30.21 "Hg3 mi
11:00 AM41 °FHaze.5 mph66%30.21 "Hg3 mi
10:30 AM41 °FScattered clouds.5 mph66%30.21 "Hg3 mi
10:00 AM39 °FScattered clouds.No wind65%30.21 "Hg3 mi
9:30 AM36 °FScattered clouds.No wind81%30.21 "Hg3 mi
9:00 AM32 °FIce fog.No wind87%30.18 "Hg3 mi
8:30 AM30 °FPassing clouds.2 mph93%30.18 "Hg4 mi
8:00 AM28 °FPassing clouds.No wind93%30.18 "Hg4 mi
7:30 AM28 °FClear.5 mph93%30.18 "Hg10 mi
7:00 AM28 °FClear.2 mph93%30.15 "Hg10 mi
6:30 AM28 °FClear.No wind93%30.15 "Hg10 mi
6:00 AM30 °FClear.5 mph93%30.15 "Hg10 mi
5:30 AM30 °FClear.2 mph93%30.15 "Hg10 mi
5:00 AM32 °FClear.5 mph93%30.15 "Hg10 mi
Weather by CustomWeather, © 2014

See weather overviewHow to use our weather pages